Russellville, AR

9:28 AM CDT on March 28, 2017 (GMT -0500)
Russellville Regional

Weather History for KRUE - May, 2013

Change the Weather History Date:

Monday, May 13, 2013

  Actual Average (KHOT) Record (KHOT)
Temperature  
Mean Temperature 66 °F -  
Max Temperature 84 °F 81 °F 91 °F (1988)
Min Temperature 48 °F 57 °F 41 °F (1997)
Cooling Degree Days 1    
Growing Degree Days 16 (Base 50)    
Moisture  
Dew Point 49 °F    
Average Humidity 61    
Maximum Humidity 93    
Minimum Humidity 25    
Precipitation  
Precipitation 0.00 in - - ()
Sea Level Pressure  
Sea Level Pressure 30.13 in    
Wind  
Wind Speed 2 mph (South)    
Max Wind Speed 9 mph    
Max Gust Speed 16 mph    
Visibility 10 miles    
Events      
Averages and records for this station are not official NWS values.
T = Trace of Precipitation, MM = Missing Value Source: NWS Daily Summary

Daily Weather History Graph

Daily Weather History Graph

Search for Another Location

Airport or City:

Trip Planner

Search our weather history database for the weather conditions in past years. The results will help you decide how hot, cold, wet, or windy it might be!

Date:

Astronomy

May. 13, 2013 Rise Set
Actual Time 6:09 AM CDT 8:08 PM CDT
Civil Twilight 5:41 AM CDT 8:36 PM CDT
Nautical Twilight 5:07 AM CDT 9:10 PM CDT
Astronomical Twilight 4:30 AM CDT 9:47 PM CDT
Moon 8:56 AM CDT (5/13) 11:17 PM CDT (5/13)
Length of Visible Light 14h 54m
Length of Day
13h 58m
Waxing Crescent, 12% of the Moon is Illuminated
May 13
Waxing Crescent
May 17
First Quarter
May 24
Full
May 31
Last Quarter
Jun 8
New

Hourly Weather History & Observations

Time (CDT) Temp. Dew Point Humidity Pressure Visibility Wind Dir Wind Speed Gust Speed Precip Events Conditions
12:53 AM 54.0 °F 48.9 °F 83% 30.17 in 10.0 mi Calm Calm - N/A   Mostly Cloudy
1:53 AM 53.1 °F 50.0 °F 89% 30.17 in 10.0 mi Calm Calm - N/A   Mostly Cloudy
2:53 AM 51.1 °F 48.0 °F 89% 30.17 in 10.0 mi Calm Calm - N/A   Clear
3:53 AM 50.0 °F 46.9 °F 89% 30.16 in 10.0 mi NE 3.5 mph - N/A   Clear
4:53 AM 48.9 °F 46.9 °F 93% 30.17 in 10.0 mi Calm Calm - N/A   Scattered Clouds
5:53 AM 48.9 °F 46.9 °F 93% 30.17 in 10.0 mi Calm Calm - N/A   Partly Cloudy
7:53 AM 55.0 °F 50.0 °F 83% 30.22 in 10.0 mi Calm Calm - N/A   Overcast
8:53 AM 60.1 °F 50.0 °F 69% 30.22 in 10.0 mi Variable 3.5 mph - N/A   Overcast
9:53 AM 64.0 °F 48.9 °F 58% 30.22 in 10.0 mi Calm Calm - N/A   Mostly Cloudy
10:53 AM 69.1 °F 50.0 °F 51% 30.20 in 10.0 mi Variable 6.9 mph - N/A   Partly Cloudy
11:53 AM 73.9 °F 48.9 °F 41% 30.18 in 10.0 mi Variable 3.5 mph - N/A   Clear
12:53 PM 77.0 °F 48.0 °F 36% 30.14 in 10.0 mi Variable 4.6 mph - N/A   Clear
1:53 PM 79.0 °F 46.0 °F 31% 30.11 in 10.0 mi SSW 9.2 mph - N/A   Clear
3:53 PM 82.9 °F 46.0 °F 27% 30.07 in 10.0 mi South 6.9 mph 16.1 mph N/A   Clear
4:53 PM 84.0 °F 45.0 °F 25% 30.06 in 10.0 mi SW 8.1 mph - N/A   Clear
5:53 PM 84.0 °F 48.0 °F 28% 30.04 in 10.0 mi Variable 5.8 mph - N/A   Clear
7:53 PM 73.9 °F 52.0 °F 46% 30.05 in 10.0 mi Calm Calm - N/A   Clear
8:53 PM 68.0 °F 53.1 °F 59% 30.06 in 10.0 mi Calm Calm - N/A   Clear
9:53 PM 64.9 °F 52.0 °F 63% 30.08 in 10.0 mi Calm Calm - N/A   Clear
10:53 PM 64.9 °F 51.1 °F 61% 30.07 in 10.0 mi Calm Calm - N/A   Clear
11:53 PM 61.0 °F 53.1 °F 75% 30.06 in 10.0 mi Calm Calm - N/A   Clear